Time,TemperatureF,DewpointF,PressureIn,WindDirection,WindDirectionDegrees,WindSpeedMPH,WindSpeedGustMPH,Humidity,HourlyPrecipIn,Conditions,Clouds,dailyrainin,SoftwareType,DateUTC
2013-02-12 00:04:00,38.2,38.0,29.59,SW,226,3.0,4.0,99,0.00,,,0.00,weatherlink.com 1.10,2013-02-12 05:04:00,
2013-02-12 00:19:00,39.3,39.0,29.58,SW,218,5.0,7.0,99,0.00,,,0.00,weatherlink.com 1.10,2013-02-12 05:19:00,
2013-02-12 00:34:00,39.1,39.0,29.57,SSW,209,6.0,8.0,99,0.00,,,0.00,weatherlink.com 1.10,2013-02-12 05:34:00,
2013-02-12 00:49:00,39.2,39.0,29.58,SSW,195,5.0,8.0,99,0.00,,,0.00,weatherlink.com 1.10,2013-02-12 05:49:00,
2013-02-12 01:04:00,38.1,38.0,29.58,SSW,208,6.0,8.0,99,0.00,,,0.00,weatherlink.com 1.10,2013-02-12 06:04:00,
2013-02-12 01:20:00,38.4,38.0,29.58,South,174,1.0,5.0,99,0.00,,,0.00,weatherlink.com 1.10,2013-02-12 06:20:00,
2013-02-12 01:35:00,42.6,42.0,29.58,WSW,240,3.0,8.0,99,0.00,,,0.00,weatherlink.com 1.10,2013-02-12 06:35:00,
2013-02-12 01:50:00,43.0,43.0,29.58,WNW,294,5.0,7.0,99,0.00,,,0.00,weatherlink.com 1.10,2013-02-12 06:50:00,
2013-02-12 02:05:00,42.5,42.0,29.58,WSW,245,6.0,7.0,99,0.01,,,0.01,weatherlink.com 1.10,2013-02-12 07:05:00,
2013-02-12 02:20:00,42.2,42.0,29.57,West,281,3.0,9.0,99,0.01,,,0.01,weatherlink.com 1.10,2013-02-12 07:20:00,
2013-02-12 02:35:00,41.7,42.0,29.57,South,175,2.0,9.0,99,0.01,,,0.01,weatherlink.com 1.10,2013-02-12 07:35:00,
2013-02-12 02:50:00,41.2,41.0,29.57,NW,316,0.0,7.0,100,0.01,,,0.01,weatherlink.com 1.10,2013-02-12 07:50:00,
2013-02-12 03:05:00,40.7,41.0,29.58,SSW,210,3.0,6.0,99,0.00,,,0.01,weatherlink.com 1.10,2013-02-12 08:05:00,
2013-02-12 03:20:00,39.9,40.0,29.58,SSW,203,3.0,4.0,99,0.00,,,0.01,weatherlink.com 1.10,2013-02-12 08:20:00,
2013-02-12 03:35:00,39.5,39.0,29.59,SSW,212,3.0,5.0,99,0.00,,,0.01,weatherlink.com 1.10,2013-02-12 08:35:00,
2013-02-12 03:50:00,38.9,39.0,29.59,SSW,212,2.0,4.0,99,0.00,,,0.01,weatherlink.com 1.10,2013-02-12 08:50:00,
2013-02-12 04:05:00,38.5,38.0,29.60,West,260,3.0,7.0,99,0.00,,,0.01,weatherlink.com 1.10,2013-02-12 09:05:00,
2013-02-12 04:20:00,37.6,37.0,29.61,SW,218,5.0,11.0,99,0.00,,,0.01,weatherlink.com 1.10,2013-02-12 09:20:00,
2013-02-12 04:35:00,36.9,37.0,29.62,SSW,211,2.0,6.0,99,0.00,,,0.01,weatherlink.com 1.10,2013-02-12 09:35:00,
2013-02-12 04:50:00,36.5,36.0,29.62,WSW,242,0.0,6.0,99,0.00,,,0.01,weatherlink.com 1.10,2013-02-12 09:50:00,
2013-02-12 05:05:00,36.0,36.0,29.63,South,172,1.0,8.0,99,0.00,,,0.01,weatherlink.com 1.10,2013-02-12 10:05:00,
2013-02-12 05:20:00,35.5,35.0,29.64,SW,225,1.0,9.0,98,0.00,,,0.01,weatherlink.com 1.10,2013-02-12 10:20:00,
2013-02-12 05:35:00,35.2,35.0,29.64,SW,226,3.0,7.0,97,0.00,,,0.01,weatherlink.com 1.10,2013-02-12 10:35:00,
2013-02-12 05:50:00,34.9,34.0,29.64,SSW,204,2.0,8.0,97,0.00,,,0.01,weatherlink.com 1.10,2013-02-12 10:50:00,
2013-02-12 06:05:00,34.7,34.0,29.64,SSW,207,5.0,7.0,96,0.00,,,0.01,weatherlink.com 1.10,2013-02-12 11:05:00,
2013-02-12 06:20:00,34.7,34.0,29.64,SW,214,6.0,9.0,96,0.00,,,0.01,weatherlink.com 1.10,2013-02-12 11:20:00,
2013-02-12 06:35:00,34.7,34.0,29.65,WSW,237,2.0,11.0,95,0.00,,,0.01,weatherlink.com 1.10,2013-02-12 11:35:00,
2013-02-12 06:50:00,34.5,33.0,29.66,WSW,258,3.0,7.0,95,0.00,,,0.01,weatherlink.com 1.10,2013-02-12 11:50:00,
2013-02-12 07:05:00,34.4,33.0,29.66,West,275,3.0,8.0,95,0.00,,,0.01,weatherlink.com 1.10,2013-02-12 12:05:00,
2013-02-12 07:20:00,34.5,33.0,29.67,WSW,245,3.0,7.0,94,0.00,,,0.01,weatherlink.com 1.10,2013-02-12 12:20:00,
2013-02-12 07:35:00,35.1,34.0,29.68,WSW,239,7.0,9.0,94,0.00,,,0.01,weatherlink.com 1.10,2013-02-12 12:35:00,
2013-02-12 07:51:00,36.2,34.0,29.68,SSW,204,7.0,10.0,92,0.00,,,0.01,weatherlink.com 1.10,2013-02-12 12:51:00,
2013-02-12 08:05:00,37.1,35.0,29.68,West,266,6.0,13.0,90,0.00,,,0.01,weatherlink.com 1.10,2013-02-12 13:05:00,
2013-02-12 08:20:00,38.0,35.0,29.68,SSW,213,8.0,10.0,88,0.00,,,0.01,weatherlink.com 1.10,2013-02-12 13:20:00,
2013-02-12 08:36:00,38.3,35.0,29.68,SW,219,7.0,10.0,88,0.00,,,0.01,weatherlink.com 1.10,2013-02-12 13:36:00,
2013-02-12 08:51:00,39.2,35.0,29.68,West,265,9.0,13.0,85,0.00,,,0.01,weatherlink.com 1.10,2013-02-12 13:51:00,
2013-02-12 09:06:00,39.7,35.0,29.69,West,266,2.0,20.0,84,0.00,,,0.01,weatherlink.com 1.10,2013-02-12 14:06:00,
2013-02-12 09:21:00,40.3,36.0,29.70,SW,229,10.0,14.0,83,0.00,,,0.01,weatherlink.com 1.10,2013-02-12 14:21:00,
2013-02-12 09:36:00,39.5,35.0,29.70,SW,220,7.0,11.0,84,0.00,,,0.01,weatherlink.com 1.10,2013-02-12 14:36:00,
2013-02-12 09:51:00,39.7,36.0,29.69,SW,225,7.0,12.0,86,0.00,,,0.01,weatherlink.com 1.10,2013-02-12 14:51:00,
2013-02-12 10:06:00,41.1,36.0,29.69,SW,230,8.0,14.0,81,0.00,,,0.01,weatherlink.com 1.10,2013-02-12 15:06:00,
2013-02-12 10:21:00,40.0,35.0,29.69,South,187,13.0,13.0,83,0.00,,,0.01,weatherlink.com 1.10,2013-02-12 15:21:00,
2013-02-12 10:36:00,42.2,36.0,29.69,SW,224,10.0,16.0,79,0.00,,,0.01,weatherlink.com 1.10,2013-02-12 15:36:00,
2013-02-12 10:51:00,41.6,36.0,29.68,SW,218,10.0,20.0,79,0.00,,,0.01,weatherlink.com 1.10,2013-02-12 15:51:00,
2013-02-12 11:06:00,43.3,36.0,29.69,SSW,211,14.0,17.0,74,0.00,,,0.01,weatherlink.com 1.10,2013-02-12 16:06:00,
2013-02-12 11:21:00,41.6,35.0,29.69,South,190,6.0,16.0,76,0.00,,,0.01,weatherlink.com 1.10,2013-02-12 16:21:00,
2013-02-12 11:36:00,40.6,35.0,29.69,WSW,240,10.0,15.0,80,0.00,,,0.01,weatherlink.com 1.10,2013-02-12 16:36:00,
2013-02-12 11:51:00,40.3,35.0,29.69,SSW,203,10.0,15.0,81,0.00,,,0.01,weatherlink.com 1.10,2013-02-12 16:51:00,
2013-02-12 12:06:00,40.1,35.0,29.70,SSW,209,8.0,14.0,81,0.00,,,0.01,weatherlink.com 1.10,2013-02-12 17:06:00,
2013-02-12 12:21:00,39.2,35.0,29.69,SSW,207,6.0,16.0,83,0.00,,,0.01,weatherlink.com 1.10,2013-02-12 17:21:00,
2013-02-12 12:36:00,39.7,34.0,29.69,WSW,244,8.0,18.0,80,0.00,,,0.01,weatherlink.com 1.10,2013-02-12 17:36:00,
2013-02-12 12:51:00,39.8,34.0,29.69,SW,218,14.0,17.0,79,0.00,,,0.01,weatherlink.com 1.10,2013-02-12 17:51:00,
2013-02-12 13:21:00,44.6,31.0,29.69,SW,235,7.0,14.0,59,0.00,,,0.01,weatherlink.com 1.10,2013-02-12 18:21:00,
2013-02-12 13:37:00,45.1,30.0,29.69,SSW,203,3.0,16.0,57,0.00,,,0.01,weatherlink.com 1.10,2013-02-12 18:37:00,
2013-02-12 13:51:00,45.2,30.0,29.70,SW,231,3.0,19.0,55,0.00,,,0.01,weatherlink.com 1.10,2013-02-12 18:51:00,
2013-02-12 14:06:00,45.2,28.0,29.70,West,271,6.0,19.0,52,0.00,,,0.01,weatherlink.com 1.10,2013-02-12 19:06:00,
2013-02-12 14:21:00,45.3,29.0,29.70,South,179,4.0,15.0,54,0.00,,,0.01,weatherlink.com 1.10,2013-02-12 19:21:00,
2013-02-12 14:36:00,45.6,30.0,29.70,SW,235,8.0,14.0,54,0.00,,,0.01,weatherlink.com 1.10,2013-02-12 19:36:00,
2013-02-12 14:51:00,45.4,29.0,29.70,SW,223,3.0,17.0,54,0.00,,,0.01,weatherlink.com 1.10,2013-02-12 19:51:00,
2013-02-12 15:06:00,45.7,29.0,29.71,West,273,8.0,15.0,53,0.00,,,0.01,weatherlink.com 1.10,2013-02-12 20:06:00,
2013-02-12 15:21:00,45.7,29.0,29.71,SW,225,5.0,17.0,53,0.00,,,0.01,weatherlink.com 1.10,2013-02-12 20:21:00,
2013-02-12 15:37:00,45.7,29.0,29.72,WSW,238,4.0,17.0,53,0.00,,,0.01,weatherlink.com 1.10,2013-02-12 20:37:00,
2013-02-12 15:51:00,45.2,29.0,29.71,West,274,2.0,16.0,54,0.00,,,0.01,weatherlink.com 1.10,2013-02-12 20:51:00,
2013-02-12 16:06:00,44.5,29.0,29.71,WSW,241,5.0,13.0,56,0.00,,,0.01,weatherlink.com 1.10,2013-02-12 21:06:00,
2013-02-12 16:22:00,43.5,29.0,29.71,WSW,248,8.0,14.0,58,0.00,,,0.01,weatherlink.com 1.10,2013-02-12 21:22:00,
2013-02-12 16:37:00,42.8,29.0,29.71,SW,231,3.0,14.0,59,0.00,,,0.01,weatherlink.com 1.10,2013-02-12 21:37:00,
2013-02-12 16:52:00,42.2,29.0,29.71,WSW,238,8.0,10.0,61,0.00,,,0.01,weatherlink.com 1.10,2013-02-12 21:52:00,
2013-02-12 17:07:00,41.4,30.0,29.71,WSW,246,3.0,11.0,63,0.00,,,0.01,weatherlink.com 1.10,2013-02-12 22:07:00,
2013-02-12 17:22:00,41.0,29.0,29.72,WSW,243,5.0,11.0,63,0.00,,,0.01,weatherlink.com 1.10,2013-02-12 22:22:00,
2013-02-12 17:37:00,40.4,29.0,29.72,WSW,242,4.0,7.0,65,0.00,,,0.01,weatherlink.com 1.10,2013-02-12 22:37:00,
2013-02-12 17:52:00,39.8,29.0,29.71,West,262,3.0,8.0,66,0.00,,,0.01,weatherlink.com 1.10,2013-02-12 22:52:00,
2013-02-12 18:07:00,39.5,29.0,29.73,SSW,197,1.0,4.0,67,0.00,,,0.01,weatherlink.com 1.10,2013-02-12 23:07:00,
2013-02-12 18:22:00,38.9,29.0,29.73,SW,217,3.0,7.0,69,0.00,,,0.01,weatherlink.com 1.10,2013-02-12 23:22:00,
2013-02-12 18:37:00,39.0,30.0,29.74,SSW,211,8.0,9.0,69,0.00,,,0.01,weatherlink.com 1.10,2013-02-12 23:37:00,
2013-02-12 18:52:00,39.3,29.0,29.76,SSE,165,4.0,12.0,68,0.00,,,0.01,weatherlink.com 1.10,2013-02-12 23:52:00,
2013-02-12 19:09:00,39.0,30.0,29.76,SSW,207,4.0,9.0,69,0.00,,,0.01,weatherlink.com 1.10,2013-02-13 00:09:00,
2013-02-12 19:22:00,38.9,29.0,29.79,South,191,4.0,12.0,69,0.00,,,0.01,weatherlink.com 1.10,2013-02-13 00:22:00,
2013-02-12 19:37:00,38.8,29.0,29.79,SW,230,4.0,9.0,68,0.00,,,0.01,weatherlink.com 1.10,2013-02-13 00:37:00,
2013-02-12 19:52:00,38.7,29.0,29.82,SW,217,8.0,11.0,69,0.00,,,0.01,weatherlink.com 1.10,2013-02-13 00:52:00,
2013-02-12 20:07:00,38.9,29.0,29.85,WSW,242,6.0,12.0,68,0.00,,,0.01,weatherlink.com 1.10,2013-02-13 01:07:00,
2013-02-12 20:22:00,38.5,29.0,29.85,West,271,5.0,8.0,69,0.00,,,0.01,weatherlink.com 1.10,2013-02-13 01:22:00,
2013-02-12 20:37:00,38.5,29.0,29.84,SW,216,5.0,11.0,68,0.00,,,0.01,weatherlink.com 1.10,2013-02-13 01:37:00,
2013-02-12 20:52:00,38.4,29.0,29.84,SW,233,2.0,12.0,69,0.00,,,0.01,weatherlink.com 1.10,2013-02-13 01:52:00,
2013-02-12 21:07:00,38.3,29.0,29.85,WSW,240,6.0,11.0,68,0.00,,,0.01,weatherlink.com 1.10,2013-02-13 02:07:00,
2013-02-12 21:22:00,37.8,28.0,29.85,WSW,248,4.0,6.0,69,0.00,,,0.01,weatherlink.com 1.10,2013-02-13 02:22:00,
2013-02-12 21:37:00,37.4,29.0,29.83,SW,214,6.0,11.0,71,0.00,,,0.01,weatherlink.com 1.10,2013-02-13 02:37:00,
2013-02-12 21:52:00,37.1,29.0,29.83,SSW,205,2.0,6.0,72,0.00,,,0.01,weatherlink.com 1.10,2013-02-13 02:52:00,
2013-02-12 22:07:00,36.6,29.0,29.82,SW,219,2.0,10.0,73,0.00,,,0.01,weatherlink.com 1.10,2013-02-13 03:07:00,
2013-02-12 22:22:00,36.1,28.0,29.82,SW,236,2.0,4.0,73,0.00,,,0.01,weatherlink.com 1.10,2013-02-13 03:22:00,
2013-02-12 22:37:00,35.7,29.0,29.80,WSW,249,3.0,6.0,75,0.00,,,0.01,weatherlink.com 1.10,2013-02-13 03:37:00,
2013-02-12 22:54:00,35.8,28.0,29.81,SSW,204,3.0,8.0,74,0.00,,,0.01,weatherlink.com 1.10,2013-02-13 03:54:00,
2013-02-12 23:07:00,35.5,28.0,29.80,SW,218,2.0,5.0,74,0.00,,,0.01,weatherlink.com 1.10,2013-02-13 04:07:00,
2013-02-12 23:23:00,35.2,28.0,29.79,SW,224,3.0,6.0,74,0.00,,,0.01,weatherlink.com 1.10,2013-02-13 04:23:00,
2013-02-12 23:37:00,34.7,28.0,29.81,SW,223,3.0,4.0,76,0.00,,,0.01,weatherlink.com 1.10,2013-02-13 04:37:00,
2013-02-12 23:54:00,34.3,27.0,29.81,WSW,239,3.0,5.0,76,0.00,,,0.01,weatherlink.com 1.10,2013-02-13 04:54:00,